x

Gravelly Shoals Light Mi (gslm4) Weather Station

3:40am - Mon 30th May 2016 All times are CDT. -5 hours from GMT.

  • Wind
    20mph, 22mph gusts
  • Air Temp 66°f
  • Sea Pressure 1013.9mb
  • Gravelly Shoals Light Mi
  • Gravelly Shoals Light Mi

More Historic Weather Station data

Upgrade to MSW Pro to gain access to the past 30 days of data for over 8000 Wavebouys and Weather Stations around the globe.

Join Pro

Comparision Forecast

View Surf forecast
   
Mon 05/30 3:40am 20 22 mph 1013.9mb 66f
3:30am 21 22 mph 1013.9mb 66f
3:20am 20 23 mph 1013.5mb 66f
3:10am 20 22 mph 1013.5mb 66f
3:00am 17 22 mph 1013.9mb 67f
2:40am 15 20 mph 1013.9mb 66f
2:30am 15 18 mph 1013.9mb 66f
2:20am 14 17 mph 1013.9mb 66f
2:10am 14 15 mph 1013.9mb 66f
2:09am 14 20 mph 1013.9mb 66f
2:00am 13 16 mph 1013.5mb 66f
1:40am 13 15 mph 1013.5mb 66f
1:30am 14 20 mph 1013.5mb 67f
1:20am 15 18 mph 1013.5mb 67f
1:10am 17 20 mph 1013.5mb 67f
1:09am 20 22 mph 1013.5mb 67f
1:00am 17 20 mph 1013.5mb 67f
12:40am 20 21 mph 1013.5mb 67f
12:30am 17 20 mph 1013.5mb 67f
12:20am 17 21 mph 1013.5mb 68f
12:10am 18 21 mph 1013.5mb 67f
12:09am 18 25 mph 1013.5mb 67f
12:00am 20 21 mph 1013.5mb 67f
Sun 05/29 11:40pm 17 21 mph 1013.5mb 69f
11:30pm 18 21 mph 1013.5mb 68f
11:20pm 16 25 mph 1013.9mb 69f
11:10pm 22 25 mph 1013.5mb 70f
11:08pm 22 25 mph 1013.5mb 70f
11:00pm 21 25 mph 1013.5mb 70f
10:40pm 18 20 mph 1013.5mb 69f
10:30pm 15 18 mph 1013.5mb 69f
10:20pm 14 16 mph 1013.5mb 70f
10:10pm 14 20 mph 1013.5mb 71f
10:08pm 16 22 mph 1013.5mb 71f
10:00pm 16 21 mph 1013.9mb 71f
9:40pm 18
mph
1013.9mb 72f
9:30pm 18 22 mph 1013.9mb 73f
9:20pm 20 21 mph 1013.9mb 73f
9:10pm 20 24 mph 1013.5mb 73f
9:07pm 21
mph
1013.5mb 73f
9:00pm 21 22 mph 1013.5mb 73f
8:40pm 22 26 mph 1013.2mb 73f
8:30pm 26 30 mph 1012.9mb 73f
8:23pm 26 30 mph 1012.9mb 73f
8:20pm 25 28 mph 1012.9mb 73f
8:10pm 25 26 mph 1012.9mb 73f
8:07pm 23 28 mph 1012.9mb 73f
8:00pm 25 26 mph 1012.9mb 73f
7:40pm 23 26 mph 1012.5mb 73f
7:30pm 20 25 mph 1012.5mb 74f
7:20pm 21 24 mph 1012.2mb 74f
7:10pm 21 24 mph 1012.2mb 74f
7:07pm 21
mph
1012.2mb 74f
7:00pm 20 28 mph 1012.2mb 74f
6:30pm 28 30 mph 1012.2mb 75f
6:20pm 24 32 mph 1012.2mb 75f
6:10pm 28 30 mph 1012.2mb 74f
6:00pm 21 25 mph 1012.5mb 75f
5:40pm 22 26 mph 1012.5mb 75f
5:30pm 25 28 mph 1012.9mb 75f
5:20pm 24 30 mph 1012.9mb 76f
5:10pm 26 29 mph 1012.2mb 76f
5:09pm 25 29 mph 1012.2mb 75f
5:00pm 18 23 mph 1012.5mb 75f
4:40pm 23 25 mph 1012.2mb 76f
4:30pm 20 21 mph 1012.5mb 75f
4:20pm 20 21 mph 1012.5mb 75f
4:10pm 21 22 mph 1012.5mb 74f
4:05pm 20 22 mph 1012.5mb 75f
4:00pm 21 22 mph 1012.5mb 74f
3:40pm 14 16 mph 1012.9mb 72f
3:30pm 15 17 mph 1012.9mb 75f
3:20pm 5 15 mph 1012.9mb 73f
3:10pm 11 15 mph 1013.2mb 74f
3:00pm 5 8 mph 1013.2mb 74f
2:40pm 7 11 mph 1013.5mb 75f
2:30pm 9 11 mph 1013.5mb 73f
2:20pm 6 9 mph 1013.9mb 74f
2:10pm 5 10 mph 1013.9mb 73f
2:00pm 6 8 mph 1013.9mb 73f
1:40pm 2 6 mph 1014.2mb 73f
1:30pm 3 5 mph 1014.2mb 74f
1:20pm 3 8 mph 1014.2mb 74f
1:10pm 3 8 mph 1014.6mb 74f
1:04pm 6 10 mph 1014.6mb 74f
1:00pm 5 10 mph 1014.6mb 74f
12:40pm 2 8 mph 1014.9mb 73f
12:30pm 6 10 mph 1014.9mb 73f
12:20pm 7 10 mph 1014.9mb 73f
12:10pm 8 10 mph 1014.9mb 73f
12:04pm 8 10 mph 1014.9mb 72f
12:00pm 8 10 mph 1014.9mb 72f
11:40am 8 10 mph 1015.2mb 72f
11:30am 8 10 mph 1015.2mb 71f
11:20am 8 10 mph 1015.2mb 71f
11:10am 8 10 mph 1015.2mb 71f
11:03am 7 10 mph 1015.2mb 71f
11:00am 7 10 mph 1015.6mb 71f
10:40am 5 7 mph 1015.6mb 70f
10:30am 6 8 mph 1015.6mb 70f
10:20am 6 8 mph 1015.6mb 71f
10:10am 6 8 mph 1015.9mb 70f
10:03am 5 9 mph 1015.9mb 70f
10:00am 5 8 mph 1015.9mb 70f
9:40am 6 8 mph 1015.9mb 69f
9:30am 5 7 mph 1015.9mb 69f
9:20am 3 6 mph 1015.9mb 69f
9:10am 5 7 mph 1015.9mb 69f
9:02am 6 11 mph 1015.9mb 69f
9:00am 6 8 mph 1015.9mb 69f
8:40am 7 9 mph 1015.9mb 70f
8:30am 6 9 mph 1015.9mb 69f
8:20am 6 11 mph 1015.9mb 69f
8:10am 9 11 mph 1015.9mb 70f
8:02am 8 13 mph 1015.9mb 69f
8:00am 6 9 mph 1016.3mb 69f
7:40am 3 5 mph 1015.9mb 69f
7:30am 2 7 mph 1015.9mb 69f
7:20am 7 9 mph 1015.9mb 69f
7:10am 7 13 mph 1015.9mb 69f
7:02am 8 25 mph 1015.9mb 69f
7:00am 8 15 mph 1015.9mb 69f
6:40am 22 23 mph 1015.6mb 70f
6:30am 22 24 mph 1015.2mb 70f
6:20am 22 23 mph 1015.2mb 70f
6:10am 23 25 mph 1015.6mb 70f
6:01am 24 25 mph 1015.6mb 70f
6:00am 24 25 mph 1015.6mb 70f
5:40am 20 22 mph 1015.2mb 70f
5:30am 20 23 mph 1015.2mb 70f
5:20am 20 24 mph 1015.2mb 70f
5:10am 24 25 mph 1015.2mb 69f
5:01am 22 23 mph 1015.2mb 69f
5:00am 22
mph
1015.6mb 69f
4:50am 17 20 mph 1015.6mb 69f
4:40am 9 13 mph 1015.2mb 70f
4:30am 7 10 mph 1015.2mb 70f
4:20am 7 10 mph 1015.6mb 70f
4:10am 8 10 mph 1015.2mb 69f
4:00am 6 10 mph 1015.2mb 69f
3:50am 5 8 mph 1015.6mb 69f
3:40am 6 8 mph 1015.6mb 69f
3:30am 7 8 mph 1015.6mb 69f
3:20am 7 10 mph 1015.6mb 70f
3:10am 7 10 mph 1015.6mb 70f
3:00am 7 10 mph 1015.6mb 70f
2:50am 9 11 mph 1015.6mb 70f
2:40am 5 9 mph 1015.6mb 70f
2:30am 6 7 mph 1015.6mb 70f
2:20am 5 8 mph 1015.6mb 71f
2:10am 5 9 mph 1015.9mb 70f
2:00am 5 23 mph 1015.9mb 70f
1:50am 7 11 mph 1015.9mb 71f
1:40am 8 13 mph 1015.9mb 71f
1:30am 11 17 mph 1015.9mb 71f
1:20am 15 16 mph 1015.9mb 71f
1:10am 13 15 mph 1015.9mb 72f
1:00am 10 15 mph 1015.9mb 71f
12:40am 14 23 mph 1015.9mb 72f
12:30am 21 23 mph 1015.9mb 72f
12:20am 18 22 mph 1015.6mb 71f
12:10am 8 13 mph 1015.6mb 72f
12:00am 10 16 mph 1015.9mb 71f
Sat 05/28 11:50pm 14 20 mph 1015.9mb 71f
11:40pm 18 22 mph 1015.9mb 71f
11:30pm 21 22 mph 1015.9mb 71f
11:20pm 18 20 mph 1015.9mb 71f
11:10pm 8 13 mph 1015.6mb 72f
11:00pm 9 16 mph 1015.6mb 72f
10:50pm 13 18 mph 1015.6mb 71f
10:40pm 14 17 mph 1015.9mb 70f
10:30pm 6 13 mph 1015.9mb 69f
10:20pm 10 18 mph 1015.9mb 68f
10:10pm 5 24 mph 1016.6mb 67f
10:00pm 24 34 mph 1016.6mb 67f
9:50pm 29 34 mph 1016.6mb 67f
9:40pm 34 41 mph 1016.3mb 69f
9:30pm 20 30 mph 1015.9mb 76f
9:20pm 20 21 mph 1015.2mb 76f
9:10pm 18 20 mph 1014.9mb 77f
9:00pm 18 20 mph 1015.2mb 78f
8:50pm 18 21 mph 1015.2mb 80f
8:40pm 16 17 mph 1015.2mb 78f
8:30pm 5 11 mph 1015.2mb 77f
8:20pm 8 16 mph 1015.2mb 77f
8:10pm 3 7 mph 1015.2mb 81f
8:00pm 3 8 mph 1015.2mb 79f
7:50pm 2 7 mph 1014.9mb 80f
7:40pm 5 8 mph 1014.9mb 77f
7:30pm 6 8 mph 1014.9mb 76f
7:20pm 7 8 mph 1014.9mb 78f
7:10pm 6 8 mph 1014.9mb 79f
7:00pm 6 7 mph 1014.9mb 79f
6:50pm 5 9 mph 1014.9mb 79f
6:30pm 6 9 mph 1014.9mb 78f
6:20pm 6 9 mph 1014.9mb 77f
6:10pm 6 10 mph 1014.9mb 77f
6:00pm 5 10 mph 1014.9mb 78f
5:50pm 6 8 mph 1014.9mb 80f
5:40pm 6 8 mph 1014.9mb 81f
5:30pm 3 7 mph 1014.9mb 81f
5:20pm 7 9 mph 1014.9mb 81f
5:10pm 6 8 mph 1014.9mb 81f
5:00pm 3 11 mph 1014.9mb 81f
4:50pm 8 11 mph 1014.9mb 79f
4:40pm 8 11 mph 1014.9mb 78f
4:30pm 9 11 mph 1015.2mb 77f
4:20pm 7 10 mph 1015.2mb 76f
4:10pm 8 10 mph 1015.2mb 76f
4:00pm 8 17 mph 1014.9mb 76f
3:50pm 9 13 mph 1015.2mb 77f
3:40pm 8 11 mph 1014.9mb 78f
3:30pm 9 13 mph 1015.2mb 77f
3:20pm 6 10 mph 1015.2mb 77f
3:10pm 7 11 mph 1015.2mb 79f
3:00pm 8 17 mph 1015.2mb 79f
2:50pm 7 11 mph 1014.9mb 78f
2:40pm 8 13 mph 1015.2mb 78f
2:30pm 8 11 mph 1015.2mb 78f
2:20pm 7 14 mph 1015.2mb 77f
2:10pm 7 10 mph 1015.6mb 76f
2:05pm 7 10 mph 1015.6mb 76f
2:00pm 7 10 mph 1015.6mb 75f
1:50pm 5 8 mph 1015.6mb 74f
1:40pm 6 8 mph 1015.6mb 74f
1:30pm 5 7 mph 1015.6mb 73f
1:20pm 3 6 mph 1015.6mb 73f
1:10pm 5 7 mph 1015.9mb 74f
1:05pm 2 13 mph 1015.9mb 74f
1:00pm 3 8 mph 1015.9mb 74f
12:50pm 3 6 mph 1015.9mb 74f
12:40pm 3 6 mph 1015.9mb 73f
12:30pm 3 13 mph 1016.3mb 72f
12:20pm 6 10 mph 1016.3mb 72f
12:10pm 7 10 mph 1016.3mb 72f
12:04pm 7 20 mph 1016.3mb 73f
12:00pm 7 10 mph 1016.3mb 73f
11:50am 9 11 mph 1016.3mb 73f
11:40am 9 16 mph 1016.3mb 74f
11:30am 16 20 mph 1016.3mb 74f
11:20am 16 20 mph 1016.3mb 74f
11:10am 15 20 mph 1016.3mb 74f
11:04am 17 20 mph 1016.3mb 74f
11:00am 14 17 mph 1016.3mb 74f
10:50am 13 16 mph 1016.3mb 74f
10:40am 11 15 mph 1016.6mb 73f
10:30am 6 9 mph 1016.6mb 74f
10:20am 7 8 mph 1016.6mb 73f
10:10am 7 8 mph 1016.3mb 71f
10:04am 7 13 mph 1016.3mb 71f
10:00am 7 9 mph 1016.3mb 71f
9:50am 7 9 mph 1016.3mb 71f
9:40am 6 9 mph 1016.6mb 71f
9:30am 7 11 mph 1016.6mb 72f
9:20am 5 13 mph 1016.6mb 72f
9:10am 3 15 mph 1016.9mb 71f
9:03am 11 20 mph 1016.9mb 72f
9:00am 16 17 mph 1016.6mb 72f
8:50am 17
mph
1016.6mb 73f
8:40am 17 18 mph 1016.3mb 72f
8:30am 18 20 mph 1016.3mb 72f
8:20am 18 20 mph 1016.3mb 72f
8:10am 18 21 mph 1016.3mb 73f
8:03am 20 23 mph 1016.3mb 73f
8:00am 20 22 mph 1016.3mb 73f
7:50am 22 23 mph 1015.9mb 72f
7:40am 21 22 mph 1015.9mb 71f
7:30am 20 21 mph 1015.9mb 71f
7:20am 18 20 mph 1015.9mb 71f
7:10am 17 18 mph 1015.9mb 71f
7:02am 17 20 mph 1015.9mb 71f
7:00am 17 20 mph 1015.9mb 71f
6:50am 20
mph
1015.9mb 71f
6:40am 18 20 mph 1015.9mb 71f
6:30am 18
mph
1015.9mb 71f
6:20am 18 20 mph 1015.9mb 71f
6:10am 18
mph
1015.9mb 71f
6:02am 17 18 mph 1015.9mb 71f
6:00am 16 18 mph 1015.9mb 71f
5:50am 16
mph
1015.6mb 72f
5:40am 11 14 mph 1015.6mb 72f
5:30am 13 15 mph 1015.2mb 71f
5:20am 14 16 mph 1015.2mb 71f
5:10am 16 18 mph 1015.2mb 71f
5:02am 16 20 mph 1015.2mb 71f
5:00am 15 16 mph 1015.2mb 71f
4:50am 13 16 mph 1015.2mb 71f
4:40am 15 17 mph 1014.9mb 71f
4:30am 13 16 mph 1014.9mb 72f
4:20am 14 17 mph 1014.9mb 72f
4:10am 15 20 mph 1014.9mb 72f
4:01am 18 22 mph 1014.9mb 72f
4:00am 18 21 mph 1014.6mb 72f
3:50am 20 22 mph 1014.6mb 72f
3:40am 21 22 mph 1014.6mb 72f
3:30am 21 22 mph 1014.6mb 72f
3:20am 21 22 mph 1014.6mb 72f
3:10am 21 22 mph 1014.6mb 72f
3:01am 20 24 mph 1014.6mb 71f
3:00am 20 21 mph 1014.2mb 71f
2:50am 18 23 mph 1014.6mb 72f
2:40am 22 24 mph 1014.2mb 73f
2:30am 22 23 mph 1014.2mb 72f
2:20am 20 21 mph 1014.2mb 73f
2:10am 15 18 mph 1014.6mb 71f
2:00am 16 18 mph 1014.6mb 73f
1:50am 17 18 mph 1014.6mb 74f
1:40am 17 18 mph 1014.6mb 74f
1:30am 17
mph
1014.6mb 73f
1:20am 17
mph
1014.6mb 73f
1:10am 15
mph
1014.6mb 72f
1:00am 9 11 mph 1014.6mb 70f
12:50am 8 10 mph 1014.6mb 70f
12:40am 6 7 mph 1014.6mb 70f
12:30am 6 7 mph 1014.6mb 70f
12:20am 7 8 mph 1014.9mb 70f
12:10am 6 7 mph 1014.6mb 70f
12:00am 6 8 mph 1014.6mb 69f
Fri 05/27 11:50pm 5
mph
1014.9mb 68f
11:40pm 5 6 mph 1014.9mb 67f
11:30pm 5 6 mph 1014.9mb 67f
11:20pm 5 6 mph 1014.9mb 66f
11:10pm 6
mph
1014.9mb 65f
11:00pm 6 7 mph 1014.9mb 65f
10:50pm 6 8 mph 1014.6mb 64f
10:40pm 7 8 mph 1014.9mb 63f
10:30pm 5 7 mph 1014.9mb 64f
10:20pm 6 8 mph 1014.9mb 63f
10:10pm 6 7 mph 1014.9mb 64f
10:00pm 6 7 mph 1014.9mb 65f
9:50pm 6 7 mph 1014.9mb 66f
9:40pm 7 8 mph 1014.9mb 65f
9:30pm 6 7 mph 1014.9mb 66f
9:20pm 7 8 mph 1014.9mb 64f
9:19pm 7 11 mph 1014.6mb 64f
9:10pm 8 9 mph 1014.6mb 66f
9:00pm 9 10 mph 1014.6mb 64f
8:50pm 8 9 mph 1014.6mb 64f
8:40pm 9 11 mph 1014.2mb 64f
8:30pm 9 11 mph 1014.2mb 66f
8:20pm 7 8 mph 1014.2mb 67f
8:19pm 7 8 mph 1014.2mb 68f
8:10pm 7
mph
1014.2mb 68f
8:00pm 2 5 mph 1014.2mb 69f
7:50pm 5 6 mph 1014.2mb 68f
7:40pm 2 3 mph 1014.2mb 69f
7:30pm  -  5 mph 1014.2mb 69f
7:20pm 3 6 mph 1014.2mb 71f
7:19pm  -  23 mph 1014.2mb 72f
7:10pm 6 7 mph 1014.2mb 72f
7:00pm 3 8 mph 1014.2mb 69f
6:50pm  -  9 mph 1014.2mb 67f
6:30pm 14 23 mph 1013.9mb 64f
6:20pm 9
mph
1013.9mb 64f
6:18pm 9
mph
1013.9mb 64f
6:10pm 9
mph
1013.9mb 64f
6:00pm 8 9 mph 1014.2mb 64f
5:50pm 8 9 mph 1014.2mb 64f
5:40pm 9
mph
1014.2mb 64f
5:30pm 9
mph
1014.2mb 63f
5:20pm 9
mph
1014.2mb 63f
5:18pm 8 11 mph 1014.2mb 63f
5:10pm 8 9 mph 1014.2mb 63f
5:00pm 9 10 mph 1014.2mb 63f
4:50pm 10 11 mph 1014.2mb 63f
4:40pm 10 11 mph 1014.2mb 63f
4:30pm 9 10 mph 1014.6mb 63f
4:20pm 9
mph
1014.6mb 62f
4:17pm 9 10 mph 1014.6mb 63f
4:10pm 8 9 mph 1014.6mb 63f
4:00pm 9 10 mph 1014.6mb 62f
3:50pm 9 10 mph 1014.9mb 61f
3:40pm 9 10 mph 1014.6mb 61f
3:30pm 9 10 mph 1014.9mb 60f
3:20pm 9 10 mph 1014.9mb 60f
3:17pm 9 10 mph 1014.9mb 60f
3:10pm 9 10 mph 1014.9mb 60f
3:00pm 9 10 mph 1015.2mb 60f
2:50pm 9 10 mph 1015.2mb 59f
2:40pm 9 10 mph 1015.2mb 59f
2:30pm 9 10 mph 1015.2mb 58f
2:20pm 10
mph
1015.2mb 58f
2:16pm 9 11 mph - 58f
2:10pm 9 10 mph 1015.6mb 58f
2:00pm 9 11 mph 1015.6mb 57f
1:50pm 10 11 mph 1015.6mb 57f
1:40pm 10 11 mph 1015.6mb 57f
1:30pm 10
mph
1015.9mb 56f
1:20pm 10 13 mph 1015.9mb 56f
1:16pm 10 14 mph 1015.9mb 56f
1:10pm 11 14 mph 1015.9mb 56f
1:00pm 13 14 mph 1015.9mb 56f
12:50pm 10 11 mph 1016.3mb 55f
12:40pm 10
mph
1016.3mb 55f
12:30pm 9 10 mph 1016.3mb 55f
12:20pm 9 10 mph 1016.6mb 55f
12:16pm 9 11 mph 1016.6mb 55f
12:10pm 9 10 mph 1016.6mb 55f
12:00pm 9 10 mph 1016.6mb 55f
11:50am 9 11 mph 1016.3mb 55f
11:40am 9 10 mph 1016.6mb 55f
11:30am 9 11 mph 1016.9mb 55f
11:20am 9 10 mph 1016.6mb 55f
11:15am 9 10 mph 1016.6mb 55f
11:10am 9 10 mph 1016.3mb 56f
11:00am 9 10 mph 1015.9mb 56f
10:50am 9
mph
1015.9mb 57f
10:40am 7 9 mph 1015.9mb 57f
10:30am 7 8 mph 1015.9mb 58f
10:20am 7 8 mph 1015.9mb 59f
10:10am 7 8 mph 1015.9mb 59f
10:00am 7 8 mph 1015.9mb 60f
9:50am 7 9 mph 1015.6mb 60f
9:40am 8 10 mph 1015.6mb 60f
9:30am 7 9 mph 1015.6mb 60f
9:20am 8 9 mph 1015.6mb 61f
9:14am 8 9 mph 1015.6mb 63f
9:10am 8 9 mph 1015.6mb 63f
9:00am 6 8 mph 1015.6mb 65f
8:50am 6
mph
1015.6mb 67f
8:40am 6
mph
1015.6mb 67f
8:30am 6
mph
1015.2mb 67f
8:20am 6 8 mph 1015.2mb 66f
8:14am 7 8 mph 1015.2mb 64f
8:10am 8
mph
1015.2mb 64f
8:00am 7 8 mph 1015.2mb 64f
7:40am 6 7 mph 1014.9mb 65f
7:30am 6
mph
1014.9mb 66f
7:20am 6
mph
1015.2mb 66f
7:14am 3
mph
1014.9mb 67f
7:10am 3
mph
1014.9mb 67f
7:00am 3
mph
1014.9mb 67f
6:50am 2 3 mph 1014.9mb 68f
6:40am 2 3 mph 1014.9mb 68f
6:30am 3
mph
1014.9mb 69f
6:20am 2
mph
1014.6mb 68f
6:13am 2 5 mph 1014.9mb 68f
6:10am 2 3 mph 1014.6mb 68f
6:00am 3
mph
1014.9mb 68f
5:50am 3 5 mph 1014.9mb 67f
5:40am 5
mph
1014.9mb 67f
5:30am 5
mph
1014.9mb 67f
5:20am 5
mph
1014.9mb 66f
5:13am 5 8 mph 1014.9mb 66f
5:10am 5 7 mph 1014.9mb 66f
5:00am 6 7 mph 1014.9mb 67f
4:50am 6 7 mph 1014.6mb 67f
4:40am 7 8 mph 1014.6mb 67f
4:30am 7
mph
1014.2mb 68f
4:20am 7
mph
1014.2mb 68f
4:12am 7 10 mph 1014.2mb 68f
4:10am 7 8 mph 1014.2mb 68f
4:00am 8 9 mph 1014.2mb 67f
3:50am 8
mph
1013.9mb 67f
3:40am 9
mph
1013.9mb 66f
3:30am 9 10 mph 1013.9mb 67f
3:20am 9 10 mph 1013.9mb 65f
3:12am 10 11 mph 1013.5mb 68f
3:10am 10
mph
1013.5mb 68f
3:00am 9
mph
1013.5mb 69f
2:50am 9 11 mph 1013.2mb 70f
2:40am 10 11 mph 1013.2mb 69f
2:30am 3 8 mph 1013.2mb 69f
2:20am 7 8 mph 1013.2mb 68f
2:12am  -  11 mph 1012.9mb 68f
2:10am  -  8 mph 1012.9mb 68f
2:00am 5 7 mph 1012.9mb 69f
1:50am 7 10 mph 1012.5mb 69f
1:40am 8 11 mph 1012.9mb 68f
1:30am 8 11 mph 1012.9mb 69f
1:20am 10 11 mph 1012.9mb 69f
1:11am 6 13 mph 1012.9mb 69f
1:10am 6 10 mph 1012.9mb 69f
1:00am 5 13 mph 1013.2mb 69f
12:50am 11 13 mph 1012.9mb 71f
12:40am 10 11 mph 1012.9mb 72f
12:30am 10 11 mph 1012.9mb 71f
12:20am 10 11 mph 1012.9mb 74f
12:11am 10 17 mph 1012.9mb 75f
12:10am 10 11 mph 1012.9mb 75f
12:00am 11 14 mph 1012.9mb 76f
Thu 05/26 11:50pm 13 15 mph 1012.9mb 75f
11:40pm 15
mph
1012.9mb 75f
11:30pm 15 17 mph 1013.2mb 76f
11:20pm 16
mph
1012.9mb 74f
11:10pm 14 16 mph 1012.9mb 76f
11:00pm 3 14 mph 1013.2mb 76f
10:50pm 6 7 mph 1012.9mb 76f
10:40pm 6 8 mph 1012.9mb 77f
10:30pm  -  14 mph 1012.9mb 76f
10:20pm 14 16 mph 1012.9mb 74f
10:10pm 13 22 mph 1012.9mb 75f
10:00pm 10 13 mph 1012.9mb 72f
9:50pm 7 20 mph 1012.9mb 70f
9:40pm 6 22 mph 1012.9mb 71f
9:30pm 5 9 mph 1012.9mb 73f
9:20pm  -  8 mph 1012.2mb 74f
9:10pm 8 9 mph 1012.2mb 72f
9:00pm 2
mph
1012.2mb 73f
8:50pm 1 7 mph 1012.2mb 73f
8:40pm 5 7 mph 1011.9mb 74f
8:30pm 1 5 mph 1011.5mb 75f
8:20pm 5 6 mph 1011.5mb 76f
8:10pm 5 6 mph 1011.2mb 76f
8:09pm 5 6 mph 1011.2mb 75f
8:00pm 5
mph
1011.2mb 75f
7:50pm 2
mph
1011.2mb 75f
7:40pm 1 2 mph 1011.2mb 76f
7:30pm  -  3 mph 1010.8mb 78f
7:20pm 3 6 mph 1010.8mb 78f
7:10pm 6 14 mph 1010.8mb 78f
7:09pm 7 24 mph 1010.8mb 78f
7:00pm 13 23 mph 1010.8mb 76f
6:50pm 20 24 mph 1011.2mb 72f
6:40pm 2
mph
1011.5mb 74f
6:30pm  -  2 mph 1011.2mb 74f
6:20pm 1 2 mph 1011.5mb 74f
6:10pm 2 3 mph 1011.5mb 74f
6:08pm 2 17 mph 1011.5mb 74f
6:00pm 3 5 mph 1011.2mb 74f
5:50pm 5 6 mph 1011.5mb 74f
5:40pm 7
mph
1011.5mb 72f
5:30pm 6 8 mph 1011.5mb 73f
5:20pm 7 17 mph 1011.5mb 72f
5:10pm 14 22 mph 1011.5mb 76f
5:08pm 15 22 mph 1011.5mb 76f
5:00pm 5 8 mph 1011.5mb 76f
4:50pm 6 10 mph 1011.5mb 76f
4:40pm 7 14 mph 1011.5mb 76f
4:30pm 10 20 mph 1011.2mb 76f
4:20pm 7 10 mph 1011.5mb 76f
4:10pm 6 13 mph 1011.9mb 77f
4:00pm 6 15 mph 1011.5mb 77f
3:50pm 14 15 mph 1011.5mb 77f
3:40pm 11 14 mph 1011.5mb 76f
3:30pm 7 9 mph 1011.9mb 77f
3:20pm 6 8 mph 1012.2mb 77f
3:10pm 6 10 mph 1012.2mb 77f
3:07pm 3 14 mph 1012.2mb 76f
3:00pm 8 10 mph 1012.2mb 76f
2:50pm 9 10 mph 1012.2mb 76f
2:40pm 3 8 mph 1012.5mb 75f
2:30pm 9 13 mph 1012.9mb 74f
2:20pm 11 14 mph 1012.9mb 73f
2:10pm 8 11 mph 1012.9mb 73f
2:07pm 8 13 mph 1012.9mb 73f
2:00pm 9 10 mph 1012.9mb 73f
1:50pm 6 13 mph 1012.9mb 73f
1:40pm 11 13 mph 1013.2mb 72f
1:30pm 10 13 mph 1013.2mb 72f
1:20pm 7 9 mph 1013.2mb 71f
1:10pm 3 7 mph 1013.2mb 70f
1:06pm 1 11 mph 1013.2mb 70f
1:00pm 8 10 mph 1013.5mb 71f
12:50pm 9
mph
1013.5mb 71f
12:40pm 8 11 mph 1013.5mb 71f
12:30pm 10 11 mph 1013.5mb 70f
12:20pm 10 11 mph 1013.9mb 69f
12:10pm 5 8 mph 1013.9mb 67f
12:06pm 1 9 mph 1013.9mb 68f
12:00pm  -  5 mph 1014.2mb 69f
11:50am 2 5 mph 1013.9mb 70f
11:40am 7 9 mph 1013.9mb 69f
11:30am 3 6 mph 1013.9mb 70f
11:20am 5 8 mph 1013.9mb 70f
11:10am 6 9 mph 1013.9mb 70f
11:06am 8 14 mph 1013.9mb 71f
11:00am 5 10 mph 1014.2mb 71f
10:50am 7 13 mph 1014.2mb 70f
10:40am 13 14 mph 1014.2mb 68f
10:30am 11 14 mph 1014.2mb 68f
10:20am 11 13 mph 1014.6mb 68f
10:10am 13
mph
1014.6mb 68f